Location: Bukit Lungun
(2.6833°N, 113.9667°E)
Time: 13:53:40
(UTC+00:00)

CZ-4B R/B - Pass Details

Date: 02 March 2021
Orbit: 487 x 650 km, 97.9° (Epoch: 12 April)

Event Time Altitude Azimuth Distance (km) Brightness Sun altitude
Rises 22:07:31 0° 348° (NNW) 2,954 6.3 -7.4°
Reaches altitude 10° 22:10:10 10° 332° (NNW) 2,042 5.4 -6.8°
Maximum altitude 22:13:33 21° 283° (WNW) 1,421 4.3 -5.9°
Drops below altitude 10° 22:16:54 10° 233° (SW) 2,014 5.3 -5.1°
Sets 22:19:30 0° 217° (SW) 2,902 6.2 -4.4°
